Kosmos-2209

operational
NORAD ID: 22112 Int'l Des: 1992-059 Owner: PVO Country: RU
HEOCIRCULARGSO
追跡 地上

Kosmos-2209について

説明を読み込み中...

リアルタイム位置

3D地球を読み込み中...

次回通過

高度履歴

Altitude vs Time

uPlot chart will show altitude changes over time

軌道要素

1 22112U 92059A 26071.06606398 -.00000248 00000-0 00000-0 0 9992
2 22112 13.6515 343.3501 0012201 335.6375 201.4261 1.00237339122647
Epoch: Mar 12, 2026 • Age: 24 hours

現在のステータス

高度 35846.9 km
速度 3.07 km/s
衛星直下点 5.37°N, 32.6°W
打ち上げ日 Sep 10, 1992
運用期間 33.5 years
タイプ other

技術仕様

分類 Payload
質量 1250.00 kg
乾燥質量 1150.00 kg
総質量 1250.00 kg
長さ 4.00 m
直径 2.00 m
スパン 5.00 m
形状 Cyl + 2 Pan
製造者 NPOL/KOMET
バスタイプ Oko
フェーズステータス In Orbit
所有者/国 PVO/RU

大規模コンステレーション

Loading constellations...